ARSAT 1 (40272 NORAD) Tracking and Keplerian Element Data

This shows tracking and keplerian element data for the satellite.

Feedback or suggestion? Click here.




ElementValue
Catalog40272
NameARSAT 1
Epoch Orbit3647
Epoch Day286.8202609
Epoch Year2024
RAAN293.6469
Inclination0.0298
Eccentricity0.0002047
Argument of Perigee267.2229
Mean Anonmoly44.5261
Mean Motion1.002722
Decay Rate-2.6E-06
L11 40272U 14062B 24286.82026090 -.00000260 00000+0 00000+0 0 9994
L22 40272 0.0298 293.6469 0002047 267.2229 44.5261 1.00272200 36474



Live tracking and technical data element details for ARSAT 1 (NORAD 40272). ARSAT 1 can be tracked NOW for your location showing map with azimuth and elevation plus other details from your city location.







IsCatalogInMostPopularTable: catalog: 40272, numindb: 603
Update: records affected: 1



GetName: 40272 ARSAT 1

Hit Count: updated at: Wed, 04 Dec 2024 12:05:41 GMT